Location: Leesville
(37.1191°N, 79.3856°W)
Time: 23:51:06
(UTC+00:00)

Envisat - Visible Passes

Search period start: 07 October 2024 00:00
Search period end: 17 October 2024 00:00
Orbit: 762 x 764 km, 98.3° (Epoch: 07 October)

Date Brightness Start Highest point End Pass type
(mag) Time Alt. Az. Time Alt. Az. Time Alt. Az.
07 Oct 4.9 08:39:13 10° N 08:40:56 22° N 08:40:56 22° N visible
08 Oct 5.5 08:01:51 10° NNE 08:02:53 16° NNE 08:02:53 16° NNE visible
08 Oct 5.0 09:42:02 10° NNW 09:43:02 13° NW 09:43:02 13° NW visible
09 Oct 4.9 09:03:29 10° N 09:04:58 19° NNW 09:04:58 19° NNW visible
10 Oct 5.2 08:25:43 10° NNE 08:26:55 18° NNE 08:26:55 18° NNE visible
11 Oct 5.8 07:48:34 10° NNE 07:48:52 12° NNE 07:48:52 12° NNE visible
11 Oct 5.0 09:28:02 10° NNW 09:29:00 14° NNW 09:29:00 14° NNW visible
12 Oct 5.1 08:49:49 10° N 08:50:57 17° N 08:50:57 17° N visible
13 Oct 5.6 08:12:16 10° NNE 08:12:53 14° NNE 08:12:53 14° NNE visible
14 Oct 5.1 09:14:11 10° N 09:14:57 14° NNW 09:14:57 14° NNW visible
15 Oct 5.4 08:36:14 10° N 08:36:53 14° N 08:36:53 14° N visible
16 Oct 5.3 09:38:56 10° NNW 09:38:57 10° NNW 09:38:57 10° NNW visible
